This is the latest recevied weather packets stored in our database for station/object NR0A-4. If no packets are shown the sender has not sent any weather packets the latest 10 day(s).
| Time | Temp. | Humidity | Pressure | Rain* | Wind** | Luminosity | Snow |
|---|---|---|---|---|---|---|---|
| 1777805404 | 12.22° C | 53% | 1009.9 hPa | 0 mm | - | 0 W/m² | - |
| 1777805105 | 12.22° C | 52% | 1010.1 hPa | 0 mm | - | 0 W/m² | - |
| 1777804805 | 12.22° C | 53% | 1010.1 hPa | 0 mm | - | 0 W/m² | - |
| 1777804504 | 11.67° C | 54% | 1010.2 hPa | 0 mm | - | 0 W/m² | - |
| 1777804205 | 11.67° C | 54% | 1010.1 hPa | 0 mm | - | 0 W/m² | - |
| 1777803904 | 11.11° C | 57% | 1010.1 hPa | 0 mm | - | 0 W/m² | - |
| 1777803605 | 10.56° C | 58% | 1010.1 hPa | 0 mm | - | 0 W/m² | - |
| 1777803304 | 10° C | 59% | 1009.9 hPa | 0 mm | - | 0 W/m² | - |
| 1777803004 | 9.44° C | 60% | 1009.8 hPa | 0 mm | - | 0 W/m² | - |
| 1777802705 | 9.44° C | 60% | 1009.8 hPa | 0 mm | - | 0 W/m² | - |
| 1777802404 | 9.44° C | 59% | 1009.7 hPa | 0 mm | - | 0 W/m² | - |
| 1777802105 | 10° C | 60% | 1009.7 hPa | 0 mm | - | 0 W/m² | - |
| 1777801804 | 10° C | 59% | 1009.7 hPa | 0 mm | - | 0 W/m² | - |
| 1777801504 | 10° C | 58% | 1009.7 hPa | 0 mm | - | 0 W/m² | - |
| 1777801205 | 10.56° C | 57% | 1009.7 hPa | 0 mm | - | 0 W/m² | - |
| 1777800904 | 10.56° C | 58% | 1009.6 hPa | 0 mm | - | 0 W/m² | - |
| 1777800604 | 10.56° C | 57% | 1009.6 hPa | 0 mm | - | 0 W/m² | - |
| 1777800304 | 10.56° C | 58% | 1009.5 hPa | 0 mm | - | 0 W/m² | - |
| 1777800005 | 10.56° C | 57% | 1009.6 hPa | 0 mm | - | 0 W/m² | - |
| 1777799704 | 10.56° C | 57% | 1009.7 hPa | 0 mm | - | 0 W/m² | - |
| 1777799405 | 11.11° C | 57% | 1009.6 hPa | 0 mm | - | 0 W/m² | - |
| 1777799104 | 11.11° C | 56% | 1009.6 hPa | 0 mm | - | 0 W/m² | - |
| 1777798804 | 11.11° C | 55% | 1009.6 hPa | 0 mm | - | 0 W/m² | - |
| 1777798504 | 11.67° C | 54% | 1009.8 hPa | 0 mm | - | 0 W/m² | - |
| 1777798204 | 11.67° C | 54% | 1009.8 hPa | 0 mm | - | 0 W/m² | - |
* Rain latest hour (hover to see other rain measurements)
** Current wind speed in m/s (hover to see current wind gust speed)